Zurück zum Katalog

ARIANE 5 R/B

AktivHEO
NORAD 41383·ROCKET BODY·🇫🇷 France

Gestartet Mar 9, 2016 von Guiana Space Centre

Loading…

Nächste Überflüge (nächste 24 Stunden)

TLE

AktuellSource: Space-Track

Epoche: Sep 14, 2026, 07:52 UTC

1 41383U 16014B   26257.32808103  .00015012  00000-0  80081-3 0  9997
2 41383   0.5165 277.2896 6394034 213.0462 305.9020  3.51660791105920

Verfolge ARIANE 5 R/B in Echtzeit mit AllMySat

Download on the App Store